#timestamp,LO_Frequency,Hit,StdDev 
1512223215.7,286047010.1,N
1512223235.6,286047007.7,N
1512223255.4,286047008.8,N
1512223275.2,286047012.3,Y
1512223295.1,286047007.1,P
1512223296.0,286047007.1,P
1512223315.8,286047004.4,P
1512223335.6,286047000.0,N
1512223355.5,286046999.8,N
1512223375.3,286047000.4,N
1512223395.1,286047003.8,N
1512223415.8,286047003.2,N
1512223435.7,286047002.7,N
1512223455.5,286046996.5,N
1512223475.3,286047000.7,N
1512223495.2,286047003.9,N
1512223515.0,286047003.6,N
1512223515.9,286047003.6,N
1512223535.7,286047003.4,N
1512223555.6,286047004.9,N
1512223575.4,286047007.3,N
1512223595.2,286047010.4,Y
1512223615.1,286047006.0,P
1512223616.0,286047006.0,P
1512223635.8,286047008.9,P
1512223655.6,286047009.1,Y
1512223675.5,286047003.0,P
1512223695.3,286047003.8,N
1512223715.1,286047000.4,N
1512223735.9,286046996.8,N
1512223755.7,286046998.9,N
1512223775.5,286047000.4,N
1512223795.4,286047002.5,N
1512223815.2,286047002.7,N
1512223835.0,286047002.0,N
1512223835.9,286047002.0,N
1512223855.8,286047001.7,N
1512223875.6,286047000.3,N
1512223895.4,286046999.5,N
1512223915.2,286046999.3,N
1512223935.1,286047001.9,N
1512223936.0,286047001.9,N
1512223955.8,286047001.2,N
1512223975.6,286047001.3,N
1512223995.5,286047001.1,N
1512224015.3,286047000.7,N
1512224035.1,286047004.2,N
1512224055.9,286047005.3,N
1512224075.7,286047004.8,N
1512224095.5,286047005.7,N
1512224115.4,286047005.9,N
1512224135.2,286047006.4,N
1512224155.0,286047004.9,N
1512224155.9,286047004.9,N
1512224175.8,286047005.1,N
1512224195.6,286047004.5,N
1512224215.4,286047009.3,Y
1512224235.3,286047008.8,P
1512224255.1,286047004.5,N
1512224256.0,286047004.5,N
1512224275.8,286047004.6,N
1512224295.6,286047005.3,N
1512224315.5,286047003.2,N
1512224335.3,286047003.5,N
1512224355.1,286047010.4,Y
1512224375.9,286047001.5,P
1512224395.7,286047000.2,N
1512224415.5,286047000.7,N
1512224435.4,286046999.9,N
1512224455.2,286046998.6,N
1512224475.0,286046997.9,N
1512224475.9,286046997.9,N
1512224495.8,286046990.4,Y
1512224515.6,286046988.7,P
1512224535.4,286046990.4,N
1512224555.3,286046996.2,N
1512224575.1,286046993.8,N
1512224576.0,286046993.8,N
1512224595.8,286046996.0,N
1512224615.7,286046994.8,N
1512224635.5,286046991.4,N
1512224655.3,286046993.0,N
1512224675.2,286046993.2,N
1512224695.9,286046991.7,N
1512224715.7,286046992.3,N
1512224735.6,286046995.1,N
1512224755.4,286046996.5,N
1512224775.2,286046997.5,N
1512224795.0,286046995.2,N
1512224795.9,286046995.2,N
1512224815.8,286046996.1,N
1512224835.6,286046994.7,N
1512224855.4,286046993.1,N
1512224875.3,286046989.6,Y
1512224895.1,286046995.2,P
1512224915.8,286046997.4,P
1512224935.7,286046997.6,N
1512224955.5,286046993.8,Y
1512224975.3,286046996.5,P
1512224995.2,286046993.3,P
1512225015.9,286046994.4,P
1512225035.7,286046993.9,Y
1512225055.6,286047000.0,P
1512225075.4,286047001.2,N
1512225095.2,286046995.3,N
1512225115.1,286046995.4,N
1512225116.0,286046995.4,N
1512225135.8,286046990.4,Y
1512225155.6,286046994.5,P
1512225175.5,286046993.4,P
1512225195.3,286046999.5,N
1512225215.1,286047002.8,N
1512225235.9,286047000.6,N
1512225255.7,286047000.9,N
1512225275.5,286046997.7,N
1512225295.4,286046996.9,N
1512225315.2,286046996.2,N
1512225335.0,286046992.2,N
1512225335.9,286046992.2,N
1512225355.8,286046994.2,N
1512225375.6,286046994.0,N
1512225395.4,286046995.7,N
1512225415.2,286046996.2,N
1512225435.1,286046995.3,N
1512225436.0,286046995.3,N
1512225455.8,286046997.1,N
1512225475.6,286046996.7,N
1512225495.5,286046998.5,N
1512225515.3,286047002.6,N
1512225535.1,286047002.3,N
1512225555.9,286047004.2,N
1512225575.7,286047003.0,N
1512225595.5,286047002.2,N
1512225615.4,286047003.5,N
1512225635.2,286047004.8,N
1512225655.0,286047004.6,N
1512225655.9,286047004.6,N
1512225675.8,286047006.2,N
1512225695.6,286047011.4,N
1512225715.4,286047012.6,N
1512225735.3,286047015.5,Y
1512225755.1,286047013.9,P
1512225756.0,286047013.9,N
1512225775.8,286047013.0,N
1512225795.7,286047012.8,N
1512225815.5,286047014.3,N
1512225835.3,286047016.8,Y
1512225855.2,286047004.4,P
1512225875.9,286047002.5,N
1512225895.7,286047000.7,N
1512225915.5,286046999.7,N
1512225935.4,286047005.3,N
1512225955.2,286047003.5,N
1512225975.0,286047005.2,N
1512225976.0,286047005.2,N
1512225995.8,286047007.4,N
1512226015.6,286047006.4,N
1512226035.4,286047004.6,N
1512226055.3,286047004.7,N
1512226075.1,286047006.0,N
1512226095.8,286047004.9,N
1512226115.7,286047006.5,N
1512226135.5,286047007.1,N
1512226155.3,286047003.1,N
1512226175.2,286047002.4,N
1512226195.9,286046998.1,N
1512226215.7,286047001.0,N
1512226235.6,286046998.3,N
1512226255.4,286047002.2,N
1512226275.2,286047001.9,N
1512226295.0,286047004.2,N
1512226296.0,286047004.2,N
1512226315.8,286047000.3,N
1512226335.6,286047002.0,N
1512226355.4,286047001.9,N
1512226375.3,286047003.0,N
1512226395.1,286047005.9,N
1512226415.8,286047009.1,Y
1512226435.7,286047005.0,P
1512226455.5,286047007.1,P
1512226475.3,286047006.7,P
1512226495.2,286047005.6,Y
1512226515.0,286046998.8,P
1512226515.9,286046998.8,N
1512226535.7,286047000.4,N
1512226555.6,286046998.3,N
1512226575.4,286046998.6,N
1512226595.2,286047000.1,N
1512226615.1,286047001.9,N
1512226616.0,286047001.9,N
1512226635.8,286047001.3,N
1512226655.6,286047001.3,N
1512226675.5,286047002.8,N
1512226695.3,286047001.7,N
1512226715.1,286047003.8,N
1512226735.9,286047006.3,Y
1512226755.7,286047000.5,P
1512226775.5,286046997.6,P
1512226795.4,286046998.7,N
